Billings, MT

5:27 AM MST on February 26, 2017 (GMT -0700)
Billings Logan International

Weather History for KBIL - September, 2013

Change the Weather History Date:

Tuesday, September 17, 2013

  Actual Average Record
Temperature  
Mean Temperature 66 °F 60 °F  
Max Temperature 74 °F 72 °F 91 °F (2009)
Min Temperature 58 °F 47 °F 26 °F (1965)
Degree Days  
Heating Degree Days 0 7  
Month to date heating degree days 2 73  
Since 1 July heating degree days 2 110  
Cooling Degree Days 1 1  
Month to date cooling degree days 102 41  
Year to date cooling degree days 839 623  
Growing Degree Days 16 (Base 50)    
Moisture  
Dew Point 53 °F    
Average Humidity 64    
Maximum Humidity 87    
Minimum Humidity 41    
Precipitation  
Precipitation 0.05 in 0.04 in 0.57 in (1942)
Month to date precipitation 2.99 0.70  
Year to date precipitation 11.17 10.75  
Snow  
Snow 0.00 in 0.00 in T in (1965)
Month to date snowfall T 0.3  
Since 1 July snowfall T 0.3  
Since 1 September snowfall T 0.3  
Snow Depth 0.00 in    
Sea Level Pressure  
Sea Level Pressure 29.69 in    
Wind  
Wind Speed 8 mph (WNW)    
Max Wind Speed 18 mph    
Max Gust Speed 24 mph    
Visibility 10 miles    
Events Rain , Thunderstorm    
T = Trace of Precipitation, MM = Missing Value Source: NWS Daily Summary

Daily Weather History Graph

Daily Weather History Graph

Search for Another Location

Airport or City:

Trip Planner

Search our weather history database for the weather conditions in past years. The results will help you decide how hot, cold, wet, or windy it might be!

Date:

Astronomy

Sep. 17, 2013 Rise Set
Actual Time 6:55 AM MDT 7:20 PM MDT
Civil Twilight 6:25 AM MDT 7:50 PM MDT
Nautical Twilight 5:50 AM MDT 8:25 PM MDT
Astronomical Twilight 5:13 AM MDT 9:02 PM MDT
Moon 6:12 PM MDT (9/17) 4:49 AM MDT (9/17)
Length of Visible Light 13h 25m
Length of Day
12h 25m
Waxing Gibbous, 96% of the Moon is Illuminated
Sep 17
Waxing Gibbous
Sep 19
Full
Sep 26
Last Quarter
Oct 4
New
Oct 11
First Quarter

Hourly Weather History & Observations

Time (MDT) Temp. Dew Point Humidity Pressure Visibility Wind Dir Wind Speed Gust Speed Precip Events Conditions
12:53 AM 66.0 °F 54.0 °F 65% 29.72 in 10.0 mi SSW 8.1 mph - N/A   Partly Cloudy
1:53 AM 66.9 °F 53.1 °F 61% 29.70 in 10.0 mi SW 10.4 mph - N/A   Partly Cloudy
2:53 AM 66.0 °F 53.1 °F 63% 29.70 in 10.0 mi SW 10.4 mph - N/A   Partly Cloudy
3:53 AM 64.0 °F 53.1 °F 67% 29.69 in 10.0 mi SW 10.4 mph - N/A   Partly Cloudy
4:53 AM 64.0 °F 52.0 °F 65% 29.70 in 10.0 mi WSW 6.9 mph - N/A   Clear
5:53 AM 61.0 °F 53.1 °F 75% 29.73 in 10.0 mi Calm Calm - N/A   Partly Cloudy
6:53 AM 66.0 °F 50.0 °F 56% 29.71 in 10.0 mi SW 5.8 mph - N/A   Mostly Cloudy
7:53 AM 62.1 °F 52.0 °F 70% 29.73 in 10.0 mi East 5.8 mph - N/A   Mostly Cloudy
8:53 AM 66.9 °F 53.1 °F 61% 29.73 in 10.0 mi North 4.6 mph - N/A   Mostly Cloudy
9:53 AM 70.0 °F 53.1 °F 55% 29.73 in 10.0 mi ENE 6.9 mph - N/A   Mostly Cloudy
10:53 AM 71.1 °F 53.1 °F 53% 29.76 in 10.0 mi Calm Calm - N/A   Mostly Cloudy
11:53 AM 69.1 °F 53.1 °F 57% 29.75 in 10.0 mi NW 12.7 mph - 0.00 in   Mostly Cloudy
12:53 PM 70.0 °F 50.0 °F 49% 29.75 in 10.0 mi NW 9.2 mph - N/A   Mostly Cloudy
1:53 PM 70.0 °F 50.0 °F 49% 29.70 in 10.0 mi North 6.9 mph - N/A   Mostly Cloudy
2:53 PM 73.0 °F 48.9 °F 42% 29.67 in 10.0 mi NW 5.8 mph - N/A   Scattered Clouds
3:17 PM 71.1 °F 50.0 °F 47% 29.79 in 10.0 mi West 9.2 mph - N/A Thunderstorm Thunderstorm
3:53 PM 66.0 °F 54.0 °F 65% 29.73 in 10.0 mi WNW 5.8 mph - 0.01 in Rain , Thunderstorm Light Thunderstorms and Rain
4:23 PM 66.0 °F 55.9 °F 70% 29.76 in 10.0 mi East 8.1 mph - 0.01 in   Mostly Cloudy
4:53 PM 66.9 °F 55.0 °F 66% 29.64 in 10.0 mi East 9.2 mph - 0.01 in   Mostly Cloudy
5:53 PM 64.9 °F 54.0 °F 68% 29.62 in 10.0 mi East 10.4 mph 23.0 mph N/A   Mostly Cloudy
6:53 PM 64.0 °F 54.0 °F 70% 29.63 in 10.0 mi South 6.9 mph - N/A   Mostly Cloudy
7:53 PM 62.1 °F 55.9 °F 80% 29.66 in 10.0 mi WNW 12.7 mph - 0.00 in   Overcast
8:53 PM 61.0 °F 55.9 °F 83% 29.63 in 10.0 mi NNW 10.4 mph - N/A   Mostly Cloudy
9:53 PM 61.0 °F 55.0 °F 81% 29.65 in 10.0 mi West 11.5 mph - N/A   Mostly Cloudy
10:53 PM 59.0 °F 55.0 °F 87% 29.67 in 10.0 mi West 5.8 mph - 0.03 in   Mostly Cloudy
11:53 PM 59.0 °F 55.9 °F 90% 29.62 in 10.0 mi NW 6.9 mph - N/A   Mostly Cloudy